• In Belarus
  • List of Countries
  • For 7 days
  • Water Temperature
  • Satellite Maps
  • Weather Map
  • Weather Widgets
  • user-avatar
    Login

    Hourly Weather Artashat

    Today, 17 February, Saturday

    Time Temperature Precipitation Wind Pressure Humidity
    00:00 0°C° 0 mm 1 mps 602 mmHg 46%
    01:00 -1°C° 0 mm 1 mps 602 mmHg 47%
    02:00 -1°C° 0 mm 1 mps 602 mmHg 48%
    03:00 -1°C° 0 mm 1 mps 601 mmHg 49%
    04:00 -1°C° 0 mm 1 mps 601 mmHg 50%
    05:00 -2°C° 0 mm 1 mps 600 mmHg 51%
    06:00 -2°C° 0 mm 1 mps 600 mmHg 53%
    07:00 -1°C° 0 mm 1 mps 601 mmHg 50%
    08:00 +1°C° 0 mm 1 mps 601 mmHg 48%
    09:00 +1°C° 0 mm 0 mps 601 mmHg 53%
    10:00 +3°C° 0 mm 1 mps 601 mmHg 53%
    11:00 +4°C° 0 mm 1 mps 601 mmHg 53%
    12:00 +5°C° 0 mm 1 mps 601 mmHg 53%
    13:00 +5°C° 0 mm 1 mps 600 mmHg 53%
    14:00 +5°C° 0 mm 2 mps 600 mmHg 53%
    15:00 +5°C° 0 mm 2 mps 600 mmHg 58%
    16:00 +4°C° 0 mm 2 mps 599 mmHg 61%
    17:00 +3°C° 0 mm 2 mps 599 mmHg 64%
    18:00 +3°C° 0 mm 2 mps 598 mmHg 67%
    19:00 +2°C° 0 mm 2 mps 598 mmHg 68%
    20:00 +2°C° 0 mm 2 mps 598 mmHg 70%
    21:00 +2°C° 0 mm 2 mps 598 mmHg 72%
    22:00 +2°C° 0.1 mm 2 mps 597 mmHg 72%
    23:00 +1°C° 0.1 mm 2 mps 597 mmHg 73%

    Tomorrow, 18 February, Sunday

    Time Temperature Precipitation Wind Pressure Humidity
    00:00 +1°C° 0.1 mm 2 mps 596 mmHg 74%
    01:00 +1°C° 0.8 mm 2 mps 596 mmHg 76%
    02:00 +1°C° 0.8 mm 2 mps 596 mmHg 77%
    03:00 +1°C° 0.8 mm 2 mps 595 mmHg 79%
    04:00 +1°C° 0.3 mm 2 mps 595 mmHg 79%
    05:00 +1°C° 0.3 mm 2 mps 595 mmHg 79%
    06:00 -1°C° 0.3 mm 2 mps 594 mmHg 80%
    07:00 -1°C° 0.7 mm 3 mps 595 mmHg 79%
    08:00 -1°C° 0.7 mm 3 mps 595 mmHg 79%
    09:00 -1°C° 0.7 mm 3 mps 595 mmHg 78%
    10:00 -2°C° 0.8 mm 4 mps 594 mmHg 78%
    11:00 -2°C° 0.8 mm 4 mps 594 mmHg 77%
    12:00 -1°C° 0.8 mm 4 mps 593 mmHg 76%
    13:00 -2°C° 1.1 mm 4 mps 593 mmHg 77%
    14:00 -2°C° 1.1 mm 4 mps 593 mmHg 77%
    15:00 -1°C° 1.1 mm 3 mps 593 mmHg 78%
    16:00 -1°C° 0.8 mm 3 mps 593 mmHg 79%
    17:00 -1°C° 0.8 mm 3 mps 593 mmHg 80%
    18:00 -2°C° 0.8 mm 2 mps 593 mmHg 81%
    19:00 -2°C° 0.4 mm 2 mps 594 mmHg 81%
    20:00 -2°C° 0.4 mm 2 mps 594 mmHg 82%
    21:00 -2°C° 0.4 mm 2 mps 594 mmHg 82%
    22:00 -3°C° 0.2 mm 2 mps 595 mmHg 82%
    23:00 -3°C° 0.2 mm 2 mps 595 mmHg 82%

    Day after tomorrow, 19 February, Monday

    Time Temperature Precipitation Wind Pressure Humidity
    00:00 -3°C° 0.2 mm 2 mps 595 mmHg 82%
    01:00 -3°C° 0.2 mm 2 mps 595 mmHg 82%
    02:00 -4°C° 0.2 mm 2 mps 595 mmHg 82%
    03:00 -4°C° 0.2 mm 2 mps 595 mmHg 83%
    04:00 -4°C° 0.1 mm 2 mps 595 mmHg 82%
    05:00 -4°C° 0.1 mm 2 mps 596 mmHg 82%
    06:00 -4°C° 0.1 mm 2 mps 596 mmHg 82%
    07:00 -4°C° 0 mm 2 mps 596 mmHg 80%
    08:00 -3°C° 0 mm 2 mps 597 mmHg 78%
    09:00 -1°C° 0 mm 1 mps 597 mmHg 76%
    10:00 0°C° 0 mm 1 mps 597 mmHg 75%
    11:00 +1°C° 0 mm 1 mps 597 mmHg 73%
    12:00 +1°C° 0 mm 1 mps 597 mmHg 71%
    13:00 +2°C° 0 mm 1 mps 597 mmHg 70%
    14:00 +2°C° 0 mm 1 mps 597 mmHg 68%
    15:00 +2°C° 0 mm 1 mps 597 mmHg 66%
    16:00 +1°C° 0 mm 1 mps 597 mmHg 68%
    17:00 0°C° 0 mm 1 mps 597 mmHg 69%
    18:00 0°C° 0 mm 1 mps 597 mmHg 70%
    19:00 -1°C° 0 mm 1 mps 597 mmHg 70%
    20:00 -1°C° 0 mm 1 mps 598 mmHg 70%
    21:00 -2°C° 0 mm 1 mps 598 mmHg 70%
    22:00 -2°C° 0 mm 1 mps 598 mmHg 70%
    23:00 -5°C° 0 mm 2 mps 598 mmHg 69%

    20 February, Tuesday

    Time Temperature Precipitation Wind Pressure Humidity
    00:00 -5°C° 0 mm 2 mps 598 mmHg 69%
    01:00 -5°C° 0 mm 2 mps 598 mmHg 68%
    02:00 -5°C° 0 mm 2 mps 598 mmHg 67%
    03:00 -6°C° 0 mm 2 mps 598 mmHg 67%
    04:00 -6°C° 0 mm 2 mps 598 mmHg 66%
    05:00 -6°C° 0 mm 2 mps 598 mmHg 66%
    06:00 -6°C° 0 mm 2 mps 598 mmHg 66%
    07:00 -5°C° 0 mm 2 mps 598 mmHg 64%
    08:00 -4°C° 0 mm 2 mps 599 mmHg 63%
    09:00 -2°C° 0 mm 2 mps 599 mmHg 62%
    10:00 -1°C° 0 mm 2 mps 599 mmHg 61%
    11:00 +1°C° 0 mm 2 mps 599 mmHg 60%
    12:00 +2°C° 0 mm 2 mps 599 mmHg 60%
    13:00 +2°C° 0 mm 2 mps 599 mmHg 59%
    14:00 +2°C° 0 mm 2 mps 599 mmHg 59%
    15:00 +4°C° 0 mm 1 mps 598 mmHg 59%
    16:00 +3°C° 0 mm 1 mps 598 mmHg 60%
    17:00 +1°C° 0 mm 1 mps 598 mmHg 62%
    18:00 0°C° 0 mm 1 mps 597 mmHg 63%
    19:00 -2°C° 0 mm 2 mps 597 mmHg 63%
    20:00 -3°C° 0 mm 2 mps 597 mmHg 62%
    21:00 -3°C° 0 mm 2 mps 598 mmHg 62%
    22:00 -3°C° 0 mm 2 mps 598 mmHg 62%
    23:00 -3°C° 0 mm 2 mps 597 mmHg 62%

    21 February, Wednesday

    Time Temperature Precipitation Wind Pressure Humidity
    00:00 -4°C° 0 mm 2 mps 597 mmHg 62%
    01:00 -2°C° 0 mm 1 mps 597 mmHg 63%
    02:00 -2°C° 0 mm 1 mps 597 mmHg 65%
    03:00 -2°C° 0 mm 1 mps 597 mmHg 66%
    04:00 -2°C° 0 mm 1 mps 597 mmHg 67%
    05:00 -2°C° 0 mm 1 mps 597 mmHg 68%
    06:00 -2°C° 0 mm 1 mps 597 mmHg 68%
    07:00 -1°C° 0 mm 1 mps 598 mmHg 66%
    08:00 -1°C° 0 mm 1 mps 598 mmHg 64%
    09:00 0°C° 0 mm 1 mps 599 mmHg 61%
    10:00 +1°C° 0 mm 1 mps 599 mmHg 60%
    11:00 +2°C° 0 mm 1 mps 599 mmHg 59%
    12:00 +3°C° 0 mm 1 mps 599 mmHg 58%
    13:00 +3°C° 0 mm 1 mps 599 mmHg 58%
    14:00 +3°C° 0 mm 1 mps 598 mmHg 57%
    15:00 +4°C° 0 mm 1 mps 598 mmHg 57%
    16:00 +3°C° 0 mm 1 mps 598 mmHg 59%
    17:00 +2°C° 0 mm 1 mps 598 mmHg 62%
    18:00 +1°C° 0 mm 1 mps 598 mmHg 64%
    19:00 0°C° 0 mm 1 mps 598 mmHg 64%
    20:00 0°C° 0 mm 1 mps 598 mmHg 64%
    21:00 0°C° 0 mm 1 mps 598 mmHg 65%
    22:00 -1°C° 0 mm 1 mps 598 mmHg 64%
    23:00 -1°C° 0 mm 1 mps 598 mmHg 64%

    22 February, Thursday

    Time Temperature Precipitation Wind Pressure Humidity
    00:00 -1°C° 0 mm 1 mps 598 mmHg 64%
    01:00 -2°C° 0 mm 1 mps 598 mmHg 64%
    02:00 -2°C° 0 mm 1 mps 598 mmHg 64%
    03:00 -2°C° 0 mm 1 mps 598 mmHg 64%
    04:00 -2°C° 0 mm 1 mps 598 mmHg 65%
    05:00 -2°C° 0 mm 1 mps 598 mmHg 65%
    06:00 -2°C° 0 mm 1 mps 598 mmHg 66%
    07:00 -1°C° 0 mm 1 mps 598 mmHg 64%
    08:00 -1°C° 0 mm 1 mps 599 mmHg 62%
    09:00 0°C° 0 mm 1 mps 599 mmHg 60%
    10:00 +1°C° 0 mm 1 mps 599 mmHg 59%
    11:00 +2°C° 0 mm 1 mps 599 mmHg 58%
    12:00 +3°C° 0 mm 1 mps 599 mmHg 56%
    13:00 +3°C° 0 mm 1 mps 598 mmHg 56%
    14:00 +4°C° 0 mm 1 mps 598 mmHg 56%
    15:00 +4°C° 0 mm 1 mps 598 mmHg 56%
    16:00 +3°C° 0 mm 1 mps 598 mmHg 58%
    17:00 +2°C° 0 mm 1 mps 597 mmHg 60%
    18:00 +1°C° 0 mm 1 mps 597 mmHg 62%
    19:00 0°C° 0 mm 1 mps 597 mmHg 62%
    20:00 0°C° 0 mm 1 mps 597 mmHg 63%
    21:00 -1°C° 0 mm 1 mps 597 mmHg 64%
    22:00 -1°C° 0 mm 1 mps 597 mmHg 63%
    23:00 -1°C° 0 mm 1 mps 597 mmHg 63%
    Show more